Retour au catalogue

COSMOS 375 DEB

ActifLEO
NORAD 4628·DEBRIS·🇷🇺 Russia

Lancé Oct 30, 1970 depuis Baikonur Cosmodrome

Loading…

Prochains Passages (prochaines 24 heures)

TLE

FraisSource: Space-Track

Époque: Sep 14, 2026, 08:20 UTC

1 04628U 70091H   26257.34761088  .00003757  00000-0  51025-3 0  9994
2 04628  62.7480 277.7390 0241080 246.1823 111.3817 14.62392322776629

Suivez COSMOS 375 DEB en temps réel avec AllMySat

Download on the App Store